Вернуться в каталог

STARLINK-35170

АктивенСвязьSSO
NORAD 65532·PAYLOAD·🇺🇸 United States

Запущен Sep 6, 2025 с Cape Canaveral Space Force Station

Loading…

Ближайшие Пролёты (ближайшие 24 часа)

TLE

СвежийSource: CelesTrak SupGP

Эпоха: Sep 14, 2026, 20:50 UTC

1 65532C 25200N   26257.86854167 -.00034192  00000+0 -10615-2 0  2579
2 65532  97.2844 324.3817 0000952  99.6324 168.6667 15.33454119    11

Отслеживайте STARLINK-35170 в реальном времени с AllMySat

Download on the App Store